TimeEDT,TemperatureF,Dew PointF,Humidity,Sea Level PressureIn,VisibilityMPH,Wind Direction,Wind SpeedMPH,Gust SpeedMPH,PrecipitationIn,Events,Conditions,WindDirDegrees,DateUTC
12:53 AM,57.0,52.0,83,29.90,10.0,West,4.6,-,N/A,,Overcast,280,2012-09-26 04:53:00
1:53 AM,57.9,51.1,78,29.91,10.0,WSW,3.5,-,N/A,,Overcast,240,2012-09-26 05:53:00
2:53 AM,55.9,51.1,84,29.90,10.0,NE,5.8,-,N/A,,Overcast,50,2012-09-26 06:53:00
3:53 AM,55.9,51.1,84,29.91,10.0,NNE,8.1,-,N/A,,Overcast,20,2012-09-26 07:53:00
4:53 AM,55.9,50.0,80,29.92,10.0,NNE,6.9,-,N/A,,Overcast,30,2012-09-26 08:53:00
5:53 AM,52.0,46.9,83,29.92,10.0,NNE,4.6,-,N/A,,Scattered Clouds,30,2012-09-26 09:53:00
6:53 AM,53.1,46.9,80,29.95,10.0,North,5.8,-,N/A,,Overcast,360,2012-09-26 10:53:00
7:53 AM,51.1,45.0,80,29.98,9.0,NNE,6.9,-,N/A,,Clear,20,2012-09-26 11:53:00
8:53 AM,52.0,46.0,80,29.99,10.0,NNE,6.9,-,N/A,,Clear,20,2012-09-26 12:53:00
9:53 AM,55.9,48.0,75,30.00,10.0,NE,8.1,-,N/A,,Clear,40,2012-09-26 13:53:00
10:53 AM,59.0,48.9,69,30.03,10.0,NNE,9.2,-,N/A,,Partly Cloudy,20,2012-09-26 14:53:00
11:53 AM,62.1,50.0,65,30.04,10.0,NE,10.4,-,N/A,,Partly Cloudy,50,2012-09-26 15:53:00
12:53 PM,64.0,48.9,58,30.05,10.0,NNE,9.2,-,N/A,,Partly Cloudy,30,2012-09-26 16:53:00
1:53 PM,64.0,46.0,52,30.05,10.0,Variable,5.8,-,N/A,,Scattered Clouds,0,2012-09-26 17:53:00
2:53 PM,66.0,43.0,43,30.04,10.0,NE,9.2,-,N/A,,Mostly Cloudy,40,2012-09-26 18:53:00
3:53 PM,66.0,42.1,42,30.04,10.0,Variable,4.6,-,N/A,,Clear,0,2012-09-26 19:53:00
4:53 PM,66.0,42.1,42,30.05,10.0,Calm,Calm,-,N/A,,Partly Cloudy,0,2012-09-26 20:53:00
5:53 PM,66.2,41.0,40,30.06,10.0,Calm,Calm,-,N/A,,Clear,0,2012-09-26 21:53:00
6:53 PM,62.1,41.0,46,30.08,10.0,NE,6.9,-,N/A,,Clear,40,2012-09-26 22:53:00
7:53 PM,55.0,46.0,72,30.11,10.0,NE,8.1,-,N/A,,Clear,40,2012-09-26 23:53:00
8:53 PM,54.0,46.9,77,30.14,10.0,ENE,5.8,-,N/A,,Mostly Cloudy,70,2012-09-27 00:53:00
9:53 PM,55.0,46.0,72,30.17,10.0,ENE,9.2,-,N/A,,Scattered Clouds,70,2012-09-27 01:53:00
10:53 PM,52.0,44.1,74,30.18,10.0,East,6.9,-,N/A,,Clear,80,2012-09-27 02:53:00
11:53 PM,50.0,43.0,77,30.19,10.0,ENE,4.6,-,N/A,,Clear,70,2012-09-27 03:53:00